Location: Perryvale
(54.4667°N, 113.3833°W)
Time: 06:07:14
(UTC+00:00)

Transit 2A Rocket - Pass Details

Date: 27 May 2024
Orbit: 583 x 910 km, 66.7° (Epoch: 23 June)

Event Time Altitude Azimuth Distance (km) Brightness Sun altitude
Exits shadow 09:53:47 - 183° (S) 2,438 7.1 -8.2°
Reaches altitude 10° 09:54:36 10° 179° (S) 2,150 6.8 -8.1°
Maximum altitude 09:59:00 34° 116° (ESE) 1,212 6.2 -7.7°
Drops below altitude 10° 10:03:49 10° 53° (NE) 2,361 9.0 -7.3°
Sets 10:06:32 0° 44° (NE) 3,351 10.6 -7.1°
